When you browse on this site, cookies collect data to enhance your experience and personalize the content and advertising you see.
Visit our Privacy Policy to learn more. By continuing to use the site, you agree to this use of cookies and data.
  • In Switzerland
  • List of Countries
  • For 7 days
  • Water Temperature
  • Weather Map
  • Weather Widgets
  • user-avatar
    Login

    Hourly Weather Valencia

    Today, 5 June, Friday

    Time Temperature Precipitation Wind Pressure Humidity
    00:00 +22°C° 0 mm 0 mps 718 mmHg 87%
    01:00 +22°C° 0 mm 0 mps 717 mmHg 87%
    02:00 +21°C° 0 mm 0 mps 717 mmHg 87%
    03:00 +21°C° 0 mm 0 mps 717 mmHg 88%
    04:00 +21°C° 0 mm 0 mps 717 mmHg 88%
    05:00 +22°C° 0 mm 0 mps 718 mmHg 84%
    06:00 +24°C° 0 mm 0 mps 719 mmHg 79%
    07:00 +25°C° 0 mm 0 mps 719 mmHg 74%
    08:00 +29°C° 0 mm 1 mps 720 mmHg 68%
    09:00 +30°C° 0 mm 1 mps 720 mmHg 61%
    10:00 +32°C° 0 mm 1 mps 720 mmHg 54%
    11:00 +33°C° 0 mm 1 mps 719 mmHg 53%
    12:00 +34°C° 0 mm 2 mps 719 mmHg 52%
    13:00 +34°C° 0 mm 2 mps 718 mmHg 51%
    14:00 +32°C° 0.5 mm 2 mps 718 mmHg 59%
    15:00 +31°C° 0.5 mm 2 mps 717 mmHg 66%
    16:00 +30°C° 0.5 mm 2 mps 717 mmHg 74%
    17:00 +28°C° 0.6 mm 2 mps 717 mmHg 80%
    18:00 +27°C° 0.6 mm 1 mps 717 mmHg 86%
    19:00 +25°C° 0.6 mm 1 mps 718 mmHg 92%
    20:00 +25°C° 0.1 mm 1 mps 718 mmHg 93%
    21:00 +25°C° 0.1 mm 1 mps 718 mmHg 93%
    22:00 +25°C° 0.1 mm 1 mps 719 mmHg 94%
    23:00 +25°C° 0 mm 1 mps 718 mmHg 94%

    Tomorrow, 6 June, Saturday

    Time Temperature Precipitation Wind Pressure Humidity
    00:00 +22°C° 0 mm 0 mps 718 mmHg 93%
    01:00 +22°C° 0 mm 0 mps 717 mmHg 93%
    02:00 +22°C° 0 mm 0 mps 717 mmHg 93%
    03:00 +22°C° 0 mm 0 mps 717 mmHg 92%
    04:00 +24°C° 0 mm 1 mps 717 mmHg 92%
    05:00 +25°C° 0.1 mm 1 mps 718 mmHg 89%
    06:00 +26°C° 0.1 mm 1 mps 719 mmHg 87%
    07:00 +25°C° 0.1 mm 0 mps 719 mmHg 84%
    08:00 +28°C° 0.2 mm 1 mps 719 mmHg 77%
    09:00 +30°C° 0.2 mm 1 mps 720 mmHg 70%
    10:00 +31°C° 0.2 mm 2 mps 720 mmHg 63%
    11:00 +31°C° 1.2 mm 2 mps 719 mmHg 66%
    12:00 +31°C° 1.2 mm 2 mps 718 mmHg 68%
    13:00 +31°C° 1.2 mm 2 mps 718 mmHg 71%
    14:00 +30°C° 2.1 mm 1 mps 717 mmHg 75%
    15:00 +30°C° 2.1 mm 1 mps 717 mmHg 80%
    16:00 +29°C° 2.1 mm 1 mps 717 mmHg 84%
    17:00 +28°C° 1.2 mm 1 mps 717 mmHg 87%
    18:00 +27°C° 1.2 mm 1 mps 717 mmHg 89%
    19:00 +25°C° 1.2 mm 1 mps 718 mmHg 92%
    20:00 +23°C° 0.4 mm 0 mps 718 mmHg 91%
    21:00 +23°C° 0.4 mm 0 mps 718 mmHg 91%
    22:00 +23°C° 0.4 mm 0 mps 719 mmHg 90%
    23:00 +23°C° 0 mm 0 mps 718 mmHg 90%

    Day after tomorrow, 7 June, Sunday

    Time Temperature Precipitation Wind Pressure Humidity
    00:00 +23°C° 0 mm 0 mps 718 mmHg 90%
    01:00 +23°C° 0 mm 0 mps 717 mmHg 90%
    02:00 +22°C° 0 mm 0 mps 717 mmHg 90%
    03:00 +22°C° 0 mm 0 mps 718 mmHg 90%
    04:00 +22°C° 0 mm 0 mps 718 mmHg 90%
    05:00 +25°C° 0 mm 1 mps 718 mmHg 89%
    06:00 +26°C° 0 mm 1 mps 719 mmHg 88%
    07:00 +26°C° 0 mm 1 mps 719 mmHg 87%
    08:00 +28°C° 0 mm 2 mps 719 mmHg 80%
    09:00 +29°C° 0 mm 2 mps 720 mmHg 74%
    10:00 +30°C° 0 mm 2 mps 720 mmHg 68%
    11:00 +30°C° 0.6 mm 2 mps 719 mmHg 70%
    12:00 +30°C° 0.6 mm 2 mps 719 mmHg 72%
    13:00 +30°C° 0.6 mm 2 mps 718 mmHg 74%
    14:00 +30°C° 1.3 mm 2 mps 717 mmHg 77%
    15:00 +29°C° 1.3 mm 2 mps 717 mmHg 80%
    16:00 +28°C° 1.3 mm 1 mps 716 mmHg 84%
    17:00 +27°C° 0.4 mm 1 mps 717 mmHg 85%
    18:00 +26°C° 0.4 mm 1 mps 717 mmHg 87%
    19:00 +25°C° 0.4 mm 1 mps 718 mmHg 88%
    20:00 +25°C° 0.1 mm 1 mps 718 mmHg 89%
    21:00 +25°C° 0.1 mm 1 mps 718 mmHg 89%
    22:00 +23°C° 0.1 mm 0 mps 719 mmHg 90%
    23:00 +23°C° 0 mm 0 mps 718 mmHg 90%

    8 June, Monday

    Time Temperature Precipitation Wind Pressure Humidity
    00:00 +22°C° 0 mm 0 mps 718 mmHg 91%
    01:00 +24°C° 0 mm 1 mps 717 mmHg 91%
    02:00 +22°C° 0 mm 0 mps 717 mmHg 91%
    03:00 +22°C° 0 mm 0 mps 717 mmHg 91%
    04:00 +22°C° 0 mm 0 mps 717 mmHg 91%
    05:00 +23°C° 0 mm 0 mps 718 mmHg 89%
    06:00 +26°C° 0 mm 1 mps 718 mmHg 87%
    07:00 +26°C° 0 mm 1 mps 719 mmHg 85%
    08:00 +28°C° 0.3 mm 1 mps 719 mmHg 80%
    09:00 +29°C° 0.3 mm 1 mps 719 mmHg 76%
    10:00 +30°C° 0.3 mm 2 mps 720 mmHg 72%
    11:00 +30°C° 0.7 mm 2 mps 719 mmHg 73%
    12:00 +30°C° 0.7 mm 2 mps 718 mmHg 73%
    13:00 +30°C° 0.7 mm 2 mps 718 mmHg 74%
    14:00 +29°C° 0.8 mm 2 mps 717 mmHg 77%
    15:00 +29°C° 0.8 mm 2 mps 717 mmHg 80%
    16:00 +28°C° 0.8 mm 2 mps 717 mmHg 83%
    17:00 +27°C° 0.3 mm 2 mps 717 mmHg 86%
    18:00 +26°C° 0.3 mm 2 mps 717 mmHg 90%
    19:00 +25°C° 0.3 mm 1 mps 717 mmHg 93%
    20:00 +25°C° 0.1 mm 1 mps 718 mmHg 93%
    21:00 +25°C° 0.1 mm 1 mps 718 mmHg 94%
    22:00 +24°C° 0.1 mm 1 mps 719 mmHg 94%
    23:00 +24°C° 0.1 mm 1 mps 718 mmHg 95%

    9 June, Tuesday

    Time Temperature Precipitation Wind Pressure Humidity
    00:00 +24°C° 0.1 mm 1 mps 717 mmHg 95%
    01:00 +24°C° 0.1 mm 1 mps 717 mmHg 96%
    02:00 +24°C° 0 mm 1 mps 717 mmHg 95%
    03:00 +23°C° 0 mm 1 mps 717 mmHg 95%
    04:00 +23°C° 0 mm 1 mps 717 mmHg 95%
    05:00 +24°C° 0 mm 1 mps 717 mmHg 93%
    06:00 +25°C° 0 mm 1 mps 718 mmHg 91%
    07:00 +25°C° 0 mm 1 mps 718 mmHg 88%
    08:00 +27°C° 0.4 mm 1 mps 718 mmHg 83%
    09:00 +28°C° 0.4 mm 1 mps 718 mmHg 78%
    10:00 +29°C° 0.4 mm 2 mps 719 mmHg 73%
    11:00 +29°C° 1 mm 2 mps 718 mmHg 74%
    12:00 +29°C° 1 mm 2 mps 717 mmHg 75%
    13:00 +29°C° 1 mm 2 mps 717 mmHg 76%
    14:00 +29°C° 0.7 mm 2 mps 716 mmHg 78%
    15:00 +28°C° 0.7 mm 1 mps 716 mmHg 80%
    16:00 +28°C° 0.7 mm 1 mps 715 mmHg 81%
    17:00 +27°C° 0.1 mm 1 mps 716 mmHg 85%
    18:00 +26°C° 0.1 mm 1 mps 716 mmHg 88%
    19:00 +23°C° 0.1 mm 0 mps 716 mmHg 92%
    20:00 +22°C° 0.2 mm 0 mps 716 mmHg 92%
    21:00 +22°C° 0.2 mm 0 mps 717 mmHg 91%
    22:00 +22°C° 0.2 mm 0 mps 717 mmHg 91%
    23:00 +22°C° 0.7 mm 0 mps 717 mmHg 91%

    10 June, Wednesday

    Time Temperature Precipitation Wind Pressure Humidity
    00:00 +22°C° 0.7 mm 0 mps 717 mmHg 91%
    01:00 +24°C° 0.7 mm 1 mps 716 mmHg 91%
    02:00 +23°C° 0.3 mm 1 mps 716 mmHg 92%
    03:00 +23°C° 0.3 mm 1 mps 716 mmHg 92%
    04:00 +23°C° 0.3 mm 1 mps 716 mmHg 92%
    05:00 +24°C° 0 mm 1 mps 716 mmHg 91%
    06:00 +24°C° 0 mm 1 mps 717 mmHg 89%
    07:00 +25°C° 0 mm 1 mps 717 mmHg 88%
    08:00 +26°C° 0 mm 1 mps 717 mmHg 80%
    09:00 +27°C° 0 mm 1 mps 718 mmHg 72%
    10:00 +29°C° 0 mm 2 mps 718 mmHg 64%
    11:00 +29°C° 0 mm 2 mps 718 mmHg 64%
    12:00 +30°C° 0 mm 2 mps 717 mmHg 63%
    13:00 +30°C° 0 mm 2 mps 717 mmHg 63%
    14:00 +30°C° 0.2 mm 2 mps 716 mmHg 66%
    15:00 +29°C° 0.2 mm 2 mps 716 mmHg 70%
    16:00 +29°C° 0.2 mm 2 mps 715 mmHg 73%
    17:00 +27°C° 0.4 mm 2 mps 716 mmHg 79%
    18:00 +26°C° 0.4 mm 1 mps 716 mmHg 85%
    19:00 +25°C° 0.4 mm 1 mps 716 mmHg 92%
    20:00 +24°C° 0 mm 1 mps 717 mmHg 92%
    21:00 +24°C° 0 mm 1 mps 717 mmHg 92%
    22:00 +24°C° 0 mm 1 mps 717 mmHg 93%
    23:00 +24°C° 0.1 mm 1 mps 717 mmHg 93%
    Show more